PI8ANH-13 Weather Reports


time (UTC)temp
C
wind
direction
speed
KPH
gust
KPH
rain 1hr
cm
rain 24hr
cm
rain mn
cm
humidity
%
barometer
mb
20260502214458 15 80 4.8 0.0 0.00 0.00 0.00 94 1013.0
20260502212957 15 80 11.3 0.0 0.00 0.00 0.00 94 1014.0
20260502211458 15 80 11.3 0.0 0.00 0.00 0.00 94 1014.0
20260502205958 16 110 14.5 0.0 0.00 0.00 0.00 88 1015.0
20260502204458 16 110 14.5 0.0 0.00 0.00 0.00 88 1015.0
20260502202957 17 30 8.0 0.0 0.00 0.00 0.00 68 1014.0
20260502201457 17 30 8.0 0.0 0.00 0.00 0.00 68 1014.0
20260502195957 20 350 12.9 0.0 0.00 0.00 0.00 60 1014.0
20260502194458 20 350 12.9 0.0 0.00 0.00 0.00 60 1014.0
20260502192957 20 330 4.8 0.0 0.00 0.00 0.00 60 1014.0
20260502191457 20 330 4.8 0.0 0.00 0.00 0.00 60 1014.0
20260502185957 22 330 8.0 0.0 0.00 0.00 0.00 53 1014.0
20260502184457 22 330 8.0 0.0 0.00 0.00 0.00 53 1014.0
20260502182957 22 3.2 0.0 0.00 0.00 0.00 53 1014.0
20260502181458 22 3.2 0.0 0.00 0.00 0.00 53 1014.0
20260502162957 22 210 8.0 0.0 0.00 0.00 0.00 47 1015.0
20260502161458 22 210 8.0 0.0 0.00 0.00 0.00 47 1015.0
20260502151457 23 220 9.7 0.0 0.00 0.00 0.00 47 1015.0
20260502122957 22 240 14.5 0.0 0.00 0.00 0.00 50 1017.0
20260502121457 22 240 14.5 0.0 0.00 0.00 0.00 50 1017.0
20260502114458 22 220 19.3 0.0 0.00 0.00 0.00 50 1017.0
20260502112957 22 220 14.5 0.0 0.00 0.00 0.00 46 1017.0
20260502111458 22 220 14.5 0.0 0.00 0.00 0.00 46 1017.0
20260502105958 21 210 16.1 0.0 0.00 0.00 0.00 49 1018.0
20260502104457 21 210 16.1 0.0 0.00 0.00 0.00 49 1018.0
20260502102957 21 180 14.5 0.0 0.00 0.00 0.00 43 1018.0
20260502101457 21 180 14.5 0.0 0.00 0.00 0.00 43 1018.0
20260502091457 17 200 3.2 0.0 0.00 0.00 0.00 52 1018.0
20260502071457 17 200 11.3 0.0 0.00 0.00 0.00 42 1018.0
20260502065957 16 170 9.7 0.0 0.00 0.00 0.00 45 1018.0
20260502064458 16 170 9.7 0.0 0.00 0.00 0.00 45 1018.0
20260502062957 13 120 4.8 0.0 0.00 0.00 0.00 51 1018.0
20260502061457 13 120 4.8 0.0 0.00 0.00 0.00 51 1018.0
20260502055958 12 3.2 0.0 0.00 0.00 0.00 51 1018.0
20260502054457 12 3.2 0.0 0.00 0.00 0.00 51 1018.0
20260502052958 11 100 4.8 0.0 0.00 0.00 0.00 54 1018.0
20260502051458 11 100 4.8 0.0 0.00 0.00 0.00 54 1018.0
20260502045957 10 1.6 0.0 0.00 0.00 0.00 58 1018.0
20260502044457 10 1.6 0.0 0.00 0.00 0.00 58 1018.0
20260502042958 11 90 4.8 0.0 0.00 0.00 0.00 54 1018.0
20260502041457 11 90 4.8 0.0 0.00 0.00 0.00 54 1018.0
20260502035957 11 100 4.8 0.0 0.00 0.00 0.00 54 1019.0
20260502034458 11 100 4.8 0.0 0.00 0.00 0.00 54 1019.0
20260502032957 11 3.2 0.0 0.00 0.00 0.00 54 1019.0
20260502031457 11 3.2 0.0 0.00 0.00 0.00 54 1019.0
20260502025958 11 100 4.8 0.0 0.00 0.00 0.00 54 1019.0
20260502024457 11 100 4.8 0.0 0.00 0.00 0.00 54 1019.0
20260502022957 11 100 8.0 0.0 0.00 0.00 0.00 54 1019.0
20260502021457 11 100 8.0 0.0 0.00 0.00 0.00 54 1019.0
20260502015958 11 120 4.8 0.0 0.00 0.00 0.00 54 1019.0
20260502014458 11 120 4.8 0.0 0.00 0.00 0.00 54 1019.0
20260502012958 12 150 4.8 0.0 0.00 0.00 0.00 50 1020.0
20260502011457 12 150 4.8 0.0 0.00 0.00 0.00 50 1020.0
20260502005957 12 150 8.0 0.0 0.00 0.00 0.00 50 1020.0
20260502004458 12 150 8.0 0.0 0.00 0.00 0.00 50 1020.0
20260502002957 13 160 11.3 0.0 0.00 0.00 0.00 44 1020.0
20260502001457 13 160 11.3 0.0 0.00 0.00 0.00 44 1020.0
20260501235957 13 160 11.3 0.0 0.00 0.00 0.00 44 1020.0
20260501234457 13 160 11.3 0.0 0.00 0.00 0.00 44 1020.0
20260501232957 13 150 9.7 0.0 0.00 0.00 0.00 44 1020.0
20260501231457 13 150 9.7 0.0 0.00 0.00 0.00 44 1020.0
20260501225957 15 140 11.3 0.0 0.00 0.00 0.00 41 1020.0
20260501224457 15 140 11.3 0.0 0.00 0.00 0.00 41 1020.0
20260501222958 16 120 9.7 0.0 0.00 0.00 0.00 39 1021.0
20260501221458 16 120 9.7 0.0 0.00 0.00 0.00 39 1021.0
20260501215957 15 110 9.7 0.0 0.00 0.00 0.00 41 1021.0